Wind_Speed
6 7 6 7 7 7 7 7 7 7 8 7 8 9 8 8 8 8 8 9 9 9 9 9 10 10 10 10 11 11 11 11 11 12 11 12 12 12 12 12 12 13 13
7 8 8 8 8 8 7 7 8 7 8 8 9 9 8 8 8 8 9 9 9 10 10 10 11 11 10 11 12 12 12 12 12 12 12 12 12 12 13 13 13 14 14
9 9 9 9 9 9 9 9 8 8 8 9 10 9 9 10 10 10 11 11 11 11 11 11 12 11 11 11 12 13 12 12 12 12 12 12 11 11 13 14 14 14 15
11 11 10 10 10 10 11 11 10 10 10 10 10 10 10 10 11 11 11 12 12 11 12 11 12 12 12 12 12 13 13 13 12 13 13 13 13 12 12 13 14 14 14
12 12 12 12 11 11 12 13 12 12 11 11 11 12 12 12 11 11 11 13 13 12 12 11 12 13 13 14 14 14 15 15 14 14 14 14 14 14 14 14 14 15 15
13 13 13 12 12 12 13 13 13 12 12 12 13 13 14 14 13 13 12 13 14 13 13 12 13 13 13 14 15 15 15 15 16 16 15 15 15 15 15 15 15 15 16
13 13 13 13 13 13 13 13 13 13 13 14 14 14 14 15 14 14 14 14 15 15 14 14 14 14 14 15 15 16 16 16 17 17 16 16 15 16 16 15 16 16 16
14 14 13 14 14 14 14 14 14 14 14 15 16 16 16 16 16 16 15 15 16 16 16 16 16 16 16 16 16 15 16 17 16 17 17 17 16 17 17 16 16 17 17
15 15 15 15 15 15 15 15 16 15 16 16 16 17 17 16 17 17 17 17 17 17 16 16 16 17 17 17 18 17 18 18 18 18 18 18 18 18 18 18 18 18 18
15 15 15 16 16 16 16 16 16 16 17 17 17 17 17 17 17 17 18 18 18 18 18 19 18 18 18 19 19 19 19 19 19 19 19 19 19 19 20 20 19 19 19
16 16 16 16 16 17 17 17 18 17 17 18 19 19 18 18 18 18 19 19 19 19 20 20 20 20 20 20 20 21 21 20 20 19 20 20 21 21 21 21 21 21 21
17 17 17 17 17 17 17 18 18 18 18 19 19 20 20 19 19 19 20 20 20 21 21 21 21 21 21 20 20 20 20 21 20 20 20 20 21 22 23 23 23 22 22
18 19 19 18 18 18 18 18 19 19 20 20 19 20 20 21 21 20 20 21 21 22 22 21 21 22 21 21 21 21 21 21 21 21 21 21 21 22 23 23 24 23 23
19 19 19 19 18 19 19 19 20 20 20 21 21 20 20 20 21 21 21 21 20 21 21 21 21 22 22 22 21 21 21 22 22 22 22 22 22 23 23 23 23 23 23
20 20 20 20 20 20 20 21 21 21 21 21 22 22 22 22 22 22 22 22 22 21 20 21 21 21 21 21 21 21 22 23 23 23 22 22 23 23 23 24 24 23 23
21 21 21 21 21 22 22 22 22 22 22 22 22 22 23 23 23 23 24 23 22 22 22 22 22 22 22 22 22 22 22 21 22 22 23 22 22 23 23 24 24 24 24
21 21 21 21 22 22 22 22 22 23 23 23 22 22 22 23 24 24 24 23 23 23 22 22 23 23 23 23 23 23 23 23 22 23 23 23 23 22 22 23 23 23 24
20 20 20 21 21 21 22 22 22 23 23 23 23 22 23 24 23 23 24 23 24 23 22 22 23 23 23 23 23 23 23 23 23 23 23 24 23 23 23 23 23 25 25
20 20 20 20 20 21 21 21 21 22 22 23 23 23 22 22 22 23 24 24 24 23 23 23 23 24 24 24 24 24 24 23 23 23 24 24 24 24 24 23 24 24 25
20 20 20 21 21 21 22 21 21 21 21 22 22 23 22 22 22 23 24 24 24 24 25 25 25 25 24 24 24 24 24 23 24 24 25 25 25 25 24 24 23 23 24
20 20 21 21 21 22 22 22 22 22 22 23 22 23 23 23 23 23 24 25 25 25 26 26 26 26 26 25 24 24 24 24 24 24 25 25 25 25 25 25 24 24 24
20 20 20 20 21 22 22 22 21 22 22 23 23 24 24 24 24 23 24 25 25 26 26 26 26 27 27 26 26 26 25 26 26 26 26 26 26 25 26 26 26 26 26
20 20 20 20 21 21 21 21 21 21 22 23 24 24 25 25 24 25 25 25 25 26 27 26 26 27 27 28 27 27 27 27 27 27 27 26 26 26 26 27 27 27 26
20 20 20 20 21 21 21 21 21 22 23 23 24 25 25 25 25 26 25 25 26 27 27 27 27 27 28 28 28 28 28 28 28 28 29 28 28 28 28 27 28 28 27
20 20 20 21 21 21 21 22 22 22 23 23 24 24 24 24 25 25 25 25 26 28 29 28 28 29 29 29 29 29 28 29 29 29 29 29 29 29 29 28 28 28 27
21 20 20 20 20 20 21 22 23 22 22 23 23 24 24 24 24 25 25 26 26 27 28 28 29 29 29 29 29 29 30 30 30 30 30 29 29 28 28 27 27 27 27
Wind_Direction
287 281 285 286 279 278 280 281 282 276 267 253 245 246 251 252 255 252 252 246 239 239 243 247 245 248 245 238 239 238 241 242 243 242 242 244 245 245 249 252 254 254 256
285 283 285 283 275 272 275 276 275 274 263 255 246 244 247 249 251 250 253 250 244 246 248 249 247 247 247 247 245 243 244 242 244 244 245 246 247 250 254 256 256 255 256
283 279 277 277 270 266 268 266 268 271 264 255 250 247 247 250 252 255 256 255 252 250 250 251 247 250 251 248 248 245 246 244 245 246 249 250 253 255 257 258 257 257 259
280 276 274 275 270 265 263 262 262 265 262 257 253 252 252 254 256 257 258 255 253 255 253 251 250 250 250 248 248 248 247 247 248 250 250 251 254 257 258 258 256 258 260
278 276 273 272 268 262 260 262 261 261 260 257 255 257 258 257 257 257 256 254 253 255 255 251 249 249 251 250 249 250 248 248 251 252 252 253 255 256 258 259 258 260 262
275 274 273 270 267 267 266 264 263 261 260 258 257 257 258 259 259 256 255 256 259 260 257 252 252 252 249 250 252 251 249 249 251 252 253 255 255 255 258 260 260 264 266
274 275 273 271 270 270 268 266 264 262 260 259 258 258 259 260 260 259 258 257 257 258 258 258 258 255 252 251 253 253 252 253 252 252 254 254 255 256 258 261 262 264 266
274 273 274 271 270 269 270 268 265 263 263 260 258 258 258 259 261 262 262 261 259 258 257 258 258 255 253 252 255 257 258 257 256 256 256 255 256 257 259 260 262 264 266
274 271 270 270 270 270 271 269 266 264 264 261 260 260 259 261 264 262 261 259 258 258 258 258 258 256 253 253 253 255 258 260 256 258 257 257 258 259 259 261 263 262 264
276 273 272 271 270 270 271 270 267 266 265 260 259 259 259 261 262 262 261 260 257 257 258 257 258 259 257 255 253 254 254 256 258 256 257 260 260 259 260 262 264 265 265
276 276 275 272 268 269 270 269 268 267 267 261 259 258 259 262 262 261 260 260 259 259 259 259 258 258 257 258 255 255 255 255 257 258 259 260 260 261 261 262 263 264 265
276 277 274 273 269 269 269 270 269 268 267 265 261 260 260 261 261 261 260 258 258 260 260 258 257 255 255 258 257 258 257 256 257 260 262 263 262 262 262 263 263 264 265
277 277 276 276 270 268 269 269 268 268 267 266 265 262 261 260 259 261 262 261 260 260 260 260 259 256 257 257 257 257 257 257 259 262 264 265 266 266 264 263 264 265 266
276 275 277 276 273 271 271 271 269 269 269 268 266 265 264 262 261 261 261 262 262 264 263 261 262 258 259 257 255 255 256 256 258 262 265 266 267 267 266 266 267 267 268
277 276 276 273 271 272 273 273 272 270 269 268 268 267 266 265 263 262 262 262 262 263 262 260 261 260 260 258 259 257 257 257 259 261 264 266 267 268 267 265 267 268 268
279 277 276 273 272 272 274 275 273 270 269 269 268 267 267 266 264 263 262 262 260 261 260 259 260 259 258 259 260 261 260 260 261 263 266 267 269 269 267 265 266 267 268
279 277 274 272 272 273 274 274 273 270 268 268 269 267 266 265 264 262 263 261 262 262 258 255 257 258 260 261 262 261 261 263 264 267 268 269 270 269 270 268 266 267 268
277 277 274 273 273 274 275 275 273 270 267 266 267 268 266 265 265 264 262 263 264 263 258 254 255 258 260 261 261 260 262 264 265 267 268 269 270 271 271 270 269 268 268
277 275 274 274 275 276 277 277 273 270 268 267 267 267 266 266 265 264 262 263 262 260 257 256 255 257 259 262 261 260 261 264 265 266 268 269 270 270 271 271 270 271 270
278 276 276 275 275 275 276 276 273 271 269 268 270 268 267 267 266 265 263 262 262 260 259 258 257 257 259 262 263 262 261 263 264 266 268 268 268 270 270 270 270 271 272
279 278 276 275 275 276 276 274 271 270 267 267 268 268 268 268 267 267 265 262 261 260 260 259 257 257 258 260 263 263 263 264 265 267 268 267 267 269 270 269 268 269 271
280 279 276 275 276 275 276 276 272 269 267 267 266 267 269 268 268 268 268 265 261 260 260 260 259 258 257 260 263 263 263 263 264 266 268 269 269 269 270 269 269 270 271
280 279 277 277 278 277 278 277 274 272 270 268 269 270 269 268 268 269 269 266 262 260 260 260 260 259 259 260 262 264 263 263 264 265 266 269 270 271 270 271 272 272 271
280 280 280 279 278 278 278 277 275 273 270 270 271 271 270 268 268 269 268 265 262 261 261 260 261 260 260 261 263 264 263 263 265 265 267 269 271 271 270 271 271 270 270
281 279 281 279 278 277 277 276 274 273 271 271 271 271 271 269 269 269 268 265 264 264 263 262 262 261 262 262 262 263 263 264 266 267 267 269 271 271 271 271 269 269 269
281 279 281 279 279 279 278 276 275 274 273 274 273 272 271 270 270 270 269 266 267 267 265 264 263 262 263 263 262 263 264 264 265 266 267 269 270 270 271 270 268 268 269
Height
5865 5865 5865 5864 5864 5864 5865 5865 5865 5865 5866 5866 5867 5868 5869 5869 5870 5871 5872 5873 5873 5874 5875 5876 5877 5878 5879 5880 5880 5882 5883 5884 5885 5885 5886 5887 5887 5888 5889 5890 5890 5891 5891
5863 5863 5863 5863 5862 5863 5862 5863 5863 5863 5864 5864 5865 5866 5867 5868 5868 5869 5869 5870 5871 5872 5873 5874 5875 5876 5877 5878 5879 5880 5881 5881 5882 5883 5884 5884 5885 5885 5886 5887 5888 5888 5889
5861 5861 5861 5861 5860 5860 5860 5861 5861 5861 5862 5862 5863 5864 5865 5866 5866 5866 5867 5867 5868 5870 5870 5871 5873 5873 5874 5875 5876 5877 5878 5879 5880 5881 5881 5882 5882 5883 5883 5884 5885 5885 5886
5858 5858 5858 5858 5858 5858 5858 5859 5859 5859 5860 5860 5861 5861 5862 5863 5863 5864 5864 5865 5866 5867 5868 5869 5870 5871 5871 5872 5873 5875 5875 5876 5877 5878 5878 5879 5879 5880 5880 5881 5881 5882 5882
5856 5855 5855 5855 5856 5856 5856 5856 5857 5857 5857 5858 5858 5859 5860 5860 5861 5861 5862 5863 5864 5864 5865 5866 5867 5868 5868 5869 5870 5871 5872 5873 5874 5874 5874 5875 5876 5876 5877 5877 5878 5878 5879
5852 5852 5852 5852 5853 5853 5853 5853 5854 5854 5854 5855 5856 5856 5857 5857 5858 5858 5859 5860 5861 5861 5862 5862 5863 5864 5865 5866 5867 5868 5869 5870 5871 5871 5871 5872 5872 5873 5873 5874 5874 5875 5875
5849 5849 5849 5849 5849 5850 5850 5850 5850 5851 5851 5852 5852 5853 5854 5854 5855 5855 5856 5857 5857 5858 5859 5859 5860 5861 5862 5863 5863 5864 5865 5866 5866 5867 5868 5868 5868 5869 5870 5870 5870 5871 5871
5845 5845 5846 5846 5846 5846 5846 5846 5846 5847 5847 5848 5848 5849 5850 5851 5851 5852 5852 5853 5854 5854 5855 5856 5856 5857 5858 5859 5860 5860 5861 5861 5862 5863 5863 5864 5864 5865 5865 5866 5866 5866 5867
5841 5841 5842 5842 5842 5842 5842 5842 5842 5843 5843 5844 5844 5845 5846 5847 5848 5848 5848 5849 5850 5850 5851 5852 5852 5853 5854 5855 5855 5856 5856 5857 5858 5858 5859 5859 5860 5860 5861 5861 5862 5862 5862
5837 5837 5837 5837 5837 5837 5838 5838 5838 5839 5839 5839 5840 5841 5842 5842 5843 5844 5845 5845 5845 5846 5846 5847 5848 5848 5849 5850 5851 5851 5852 5852 5853 5853 5854 5854 5855 5855 5856 5856 5857 5857 5857
5833 5833 5833 5833 5833 5833 5833 5833 5833 5834 5834 5835 5835 5836 5837 5838 5838 5839 5840 5840 5841 5841 5841 5842 5843 5843 5844 5845 5846 5846 5847 5847 5848 5848 5849 5849 5849 5850 5851 5851 5851 5852 5852
5828 5828 5828 5828 5828 5829 5829 5829 5829 5829 5829 5829 5830 5831 5832 5833 5833 5834 5835 5835 5836 5836 5836 5837 5837 5838 5839 5839 5840 5841 5842 5842 5843 5843 5844 5844 5844 5844 5845 5845 5846 5846 5846
5824 5823 5823 5823 5823 5823 5824 5824 5824 5824 5824 5824 5825 5825 5826 5827 5828 5829 5830 5830 5831 5831 5831 5831 5832 5832 5833 5834 5835 5835 5836 5837 5838 5838 5838 5839 5839 5839 5839 5840 5840 5840 5840
5819 5818 5818 5818 5818 5818 5818 5818 5818 5818 5818 5818 5819 5820 5820 5821 5822 5823 5824 5825 5825 5826 5826 5826 5826 5827 5828 5828 5829 5830 5830 5831 5832 5832 5833 5833 5833 5833 5833 5833 5833 5834 5834
5813 5813 5813 5813 5813 5813 5813 5812 5812 5813 5813 5813 5813 5813 5814 5815 5815 5816 5817 5818 5819 5820 5820 5820 5821 5821 5822 5823 5823 5824 5824 5825 5826 5826 5827 5827 5827 5827 5827 5827 5827 5827 5827
5808 5807 5807 5807 5807 5807 5807 5807 5807 5806 5807 5807 5807 5807 5808 5808 5809 5810 5811 5812 5813 5814 5814 5815 5815 5816 5816 5817 5817 5818 5818 5819 5819 5820 5820 5820 5821 5821 5821 5821 5821 5821 5821
5802 5801 5801 5801 5801 5801 5800 5800 5800 5800 5800 5800 5800 5801 5801 5801 5802 5803 5804 5805 5806 5807 5808 5809 5809 5809 5810 5810 5811 5812 5812 5813 5814 5814 5814 5814 5814 5814 5814 5814 5814 5814 5814
5796 5795 5795 5795 5795 5794 5794 5793 5793 5793 5794 5794 5794 5794 5795 5795 5796 5796 5797 5798 5799 5800 5801 5802 5803 5803 5803 5804 5805 5806 5806 5807 5807 5808 5808 5808 5808 5807 5807 5807 5807 5807 5807
5790 5789 5789 5789 5788 5788 5787 5787 5787 5787 5787 5788 5788 5788 5788 5788 5789 5789 5790 5791 5792 5793 5794 5795 5796 5796 5797 5798 5798 5799 5800 5800 5801 5801 5801 5801 5801 5801 5801 5800 5800 5800 5800
5784 5783 5783 5782 5782 5781 5781 5781 5781 5781 5781 5781 5781 5781 5781 5782 5782 5782 5783 5784 5785 5786 5787 5788 5789 5790 5790 5791 5792 5792 5793 5793 5794 5794 5794 5794 5794 5794 5794 5794 5794 5793 5793
5778 5777 5776 5776 5775 5775 5775 5774 5774 5774 5774 5774 5774 5774 5775 5775 5775 5775 5776 5777 5777 5778 5779 5780 5781 5782 5783 5784 5785 5785 5786 5787 5787 5787 5787 5787 5787 5787 5787 5787 5787 5786 5786
5771 5771 5770 5769 5769 5768 5768 5767 5767 5767 5767 5767 5767 5767 5767 5768 5768 5768 5768 5769 5770 5771 5772 5772 5773 5774 5775 5776 5777 5778 5778 5779 5780 5781 5780 5780 5780 5780 5779 5779 5779 5779 5778
5765 5765 5764 5763 5762 5762 5761 5761 5761 5760 5760 5760 5759 5759 5760 5760 5760 5761 5761 5761 5762 5763 5764 5765 5765 5766 5767 5768 5769 5770 5771 5771 5772 5773 5772 5773 5772 5772 5772 5771 5771 5771 5771
5759 5758 5757 5757 5756 5755 5755 5754 5754 5754 5753 5753 5752 5752 5752 5752 5753 5753 5753 5754 5754 5755 5755 5756 5757 5758 5759 5760 5761 5762 5763 5763 5764 5764 5764 5765 5765 5764 5764 5763 5763 5763 5763
5752 5751 5751 5750 5749 5749 5748 5748 5747 5746 5746 5746 5745 5745 5744 5744 5745 5745 5746 5746 5747 5747 5747 5747 5748 5749 5750 5751 5752 5754 5754 5755 5755 5756 5756 5756 5756 5756 5756 5756 5755 5755 5755
5746 5745 5744 5743 5743 5742 5741 5741 5740 5740 5739 5739 5738 5738 5737 5737 5737 5737 5738 5738 5739 5739 5739 5739 5740 5741 5742 5743 5744 5745 5745 5746 5746 5747 5748 5748 5748 5748 5748 5748 5748 5748 5747